Theta_e
359 359 360 360 360 359 359 359 359 360 359 359 358 358 358 358 358 357 355 354 351 349 348 348 347 346 344 343 343 343 344 343 343 342 342 340 338 339 339 340 339 339 340 339 339 337 338 338 337 337 339 337 336 337 338 338 338 338 338 336 334 335 333 329 326 326 329 332 332 332 333 334 331 331 331 334 335 335 340 335 336 336 335 334 335
360 359 360 360 359 360 359 359 360 360 359 358 358 357 357 358 358 358 355 354 351 350 348 347 347 346 345 343 342 343 344 344 343 342 341 341 339 341 340 340 339 338 338 338 338 339 338 336 336 338 338 336 337 337 337 336 337 335 336 338 335 334 335 332 328 326 326 326 331 332 332 334 330 333 330 330 330 334 333 334 336 335 334 334 333
362 360 360 359 359 360 360 359 359 359 358 358 358 358 358 358 359 357 356 354 352 350 348 347 346 345 345 344 343 342 344 343 343 342 341 341 340 340 340 339 338 337 336 336 337 338 338 337 336 337 340 337 337 337 338 336 336 335 335 336 335 334 334 334 329 326 326 325 328 329 329 331 330 330 333 335 334 334 331 331 333 335 336 333 331
363 361 360 359 359 359 359 359 359 358 358 358 358 358 358 358 359 357 357 355 352 351 349 347 346 345 344 344 343 342 343 343 343 342 342 341 340 339 338 339 339 338 337 336 336 337 336 336 336 337 337 335 335 335 335 335 335 335 334 334 334 333 333 333 332 328 326 324 325 328 329 328 329 332 334 335 332 331 331 331 332 332 332 333 332
362 362 360 359 359 359 359 359 359 358 358 358 358 358 358 358 358 358 357 355 353 351 350 348 346 345 343 343 342 342 343 343 343 342 342 342 341 340 339 337 338 338 337 337 342 337 337 336 336 336 336 334 334 334 335 334 335 335 335 334 333 333 335 334 332 331 327 326 326 327 330 330 331 331 333 331 330 330 330 330 331 330 329 330 332
362 362 361 360 359 358 358 359 359 359 358 358 358 358 357 357 357 358 357 355 353 351 349 349 348 345 344 343 343 342 343 343 343 342 342 342 342 341 340 338 337 338 338 337 338 338 337 336 336 336 336 335 334 335 335 334 335 334 334 334 334 334 333 332 332 330 329 327 326 326 326 328 327 328 331 332 329 328 328 329 329 331 331 331 331
362 362 361 360 358 358 358 359 359 360 359 358 358 358 356 357 357 357 358 356 353 351 350 349 349 347 345 344 343 342 343 343 342 342 343 342 341 340 340 338 337 338 338 338 338 338 338 337 337 337 337 337 336 335 335 335 336 335 335 334 334 334 333 332 332 330 329 328 327 327 326 327 327 325 328 331 331 329 327 326 325 328 329 328 328
361 362 362 360 358 358 358 359 360 360 360 359 358 358 357 356 357 357 358 356 354 352 350 349 349 348 346 344 343 343 343 343 342 341 342 342 341 341 340 339 338 337 338 338 338 338 339 339 339 339 338 338 337 336 336 336 336 335 336 335 335 333 332 331 331 330 328 328 327 327 325 326 325 328 330 327 325 326 329 327 324 324 325 328 329
361 362 362 360 359 359 359 359 360 361 360 359 358 358 357 355 356 357 357 356 355 353 352 350 348 347 346 345 344 343 343 343 343 341 340 341 342 341 339 338 338 337 337 337 338 338 338 339 339 339 341 346 341 339 339 339 337 334 335 335 334 333 332 331 331 329 328 328 327 327 324 324 325 325 324 323 323 324 326 328 327 327 326 326 327
359 361 361 360 359 359 359 359 359 360 360 359 358 358 357 356 356 357 356 356 355 354 352 351 349 347 346 344 344 344 342 343 339 331 334 341 340 340 340 338 338 337 336 336 336 337 338 339 341 348 349 349 345 337 332 332 335 337 335 335 335 334 332 331 330 329 328 327 326 326 325 324 325 325 325 325 326 327 326 326 324 325 324 325 325
358 358 360 361 360 359 359 358 359 359 360 360 359 359 358 357 356 356 356 355 354 354 353 351 349 347 346 344 343 343 342 342 330 329 331 333 339 339 339 338 338 338 337 336 335 336 338 338 338 344 348 348 346 342 336 332 332 331 332 334 337 336 333 331 330 329 328 327 327 326 325 325 326 327 326 325 326 325 325 324 323 323 321 320 318
356 356 359 361 361 360 359 359 358 358 359 359 359 359 359 357 355 356 356 355 354 354 352 351 349 347 346 344 343 343 342 334 325 328 329 329 334 340 339 339 339 338 337 336 337 337 337 339 340 340 341 340 338 338 337 332 329 329 328 328 328 330 333 334 332 329 328 327 326 326 326 326 326 326 326 326 325 325 326 326 324 322 321 320 318
354 354 357 361 361 360 360 359 358 358 358 359 360 359 358 357 355 356 356 356 355 353 352 350 348 347 345 343 342 342 341 330 325 326 328 328 330 337 340 340 339 338 338 337 338 338 338 338 338 340 341 346 348 338 336 335 330 325 325 326 326 326 324 324 325 331 328 326 326 325 326 326 324 325 328 328 328 325 324 323 323 323 323 322 321
352 353 355 360 361 361 360 360 359 359 359 360 360 359 358 357 356 356 356 356 354 353 351 347 346 345 344 343 342 341 341 326 323 323 325 326 327 333 340 339 338 338 338 339 340 338 337 337 337 338 339 339 336 334 335 333 333 335 333 330 329 331 328 323 322 321 325 328 327 325 327 329 327 327 330 329 327 324 324 323 324 324 324 323 324
350 352 354 358 361 361 361 360 360 360 361 360 360 359 358 357 356 356 356 355 354 351 348 346 344 344 343 343 342 340 341 321 321 321 322 323 323 329 338 340 338 337 338 339 338 338 338 339 337 336 336 333 334 336 334 333 333 332 334 336 335 333 334 334 332 329 328 327 327 327 328 329 329 329 329 329 328 327 327 325 325 324 326 326 324
350 352 354 358 361 362 362 361 361 362 361 360 359 358 358 357 356 355 355 354 354 351 347 346 344 343 343 342 342 340 338 318 320 320 321 321 326 333 336 337 337 336 335 336 337 338 337 337 336 333 332 333 334 333 335 333 331 331 332 335 336 335 334 333 330 332 337 333 330 329 329 330 327 330 331 330 329 329 330 326 323 321 319 317 316
351 353 355 359 362 364 364 363 362 361 360 359 358 358 357 357 356 355 353 352 350 348 345 344 343 343 342 342 341 341 330 320 318 318 318 322 327 334 334 335 335 335 333 334 335 335 336 336 332 333 334 333 332 325 327 334 332 332 333 334 334 333 332 335 328 323 323 322 322 324 324 322 320 317 315 316 324 324 322 319 318 319 317 314 316
354 355 358 362 364 365 364 363 361 360 359 358 357 358 358 358 357 356 353 351 349 348 345 342 342 343 343 342 342 339 328 320 316 316 318 322 325 329 332 334 334 334 336 336 335 336 340 343 341 334 333 332 326 323 324 331 333 334 334 332 331 331 332 334 336 335 325 320 318 318 319 320 320 319 319 318 317 321 320 317 319 317 316 316 314
357 359 362 365 365 365 364 362 361 359 358 358 358 357 357 357 358 357 355 353 350 349 346 343 342 342 342 343 340 335 329 322 315 316 317 317 323 329 333 334 334 334 336 334 334 334 335 341 343 335 332 330 324 323 323 328 333 333 332 331 329 329 329 329 330 329 328 328 328 328 328 325 327 325 327 322 320 321 322 321 320 319 316 317 317
362 364 365 365 365 363 362 360 359 358 357 357 356 356 356 357 357 357 356 353 350 348 345 344 343 343 343 344 341 336 332 327 321 315 314 314 318 332 335 334 333 333 334 332 330 330 331 333 336 324 321 320 318 317 317 319 332 332 331 330 327 326 326 325 328 327 325 327 327 328 329 328 328 329 329 330 330 329 323 322 322 319 317 317 317
365 365 364 364 362 361 360 359 358 357 357 355 354 354 354 355 356 355 354 352 350 347 345 344 344 342 344 344 342 337 333 330 325 314 314 314 317 327 337 335 335 336 334 329 326 324 326 331 333 327 318 315 313 311 311 312 322 332 330 329 328 324 319 322 325 331 323 323 324 324 325 326 327 327 326 325 326 327 328 326 326 323 321 319 318
365 364 362 361 360 359 358 357 357 356 355 353 352 351 351 353 353 354 353 350 347 345 343 341 340 338 340 341 340 337 333 328 330 317 314 312 314 322 335 336 336 336 333 331 328 328 330 332 332 329 321 316 314 312 310 311 315 326 325 311 309 315 321 324 322 321 321 321 320 320 321 321 320 321 323 324 324 325 323 322 324 325 326 326 322
363 361 359 358 357 356 355 354 354 354 352 351 351 349 350 350 352 352 350 345 344 342 340 339 336 334 336 337 338 337 334 331 324 323 313 311 312 315 322 328 325 336 332 330 331 331 332 331 330 323 317 313 310 308 306 308 314 318 305 307 309 312 317 319 319 320 318 319 319 318 318 319 320 319 321 321 322 321 322 320 320 320 321 322 322
360 358 355 355 354 353 352 352 352 352 351 350 350 349 348 349 350 350 347 344 342 340 338 337 334 332 333 334 335 335 334 332 323 320 319 311 311 312 314 317 319 331 333 332 331 331 330 329 320 305 300 298 301 304 306 311 318 307 305 309 313 313 317 316 317 318 319 317 317 317 318 318 319 320 320 322 321 318 318 320 318 317 316 316 315
356 354 353 352 351 351 350 350 350 350 350 350 348 348 348 349 348 347 345 344 342 339 337 336 334 332 331 331 333 333 332 330 326 322 318 314 313 312 314 316 316 320 332 330 331 327 320 307 300 301 301 301 303 305 307 308 306 306 307 311 317 316 316 315 315 317 315 316 317 319 319 320 320 321 322 322 323 320 319 318 318 317 316 315 315
353 351 350 350 350 349 348 349 350 350 349 350 349 347 347 346 345 344 344 344 342 339 336 336 334 332 331 333 333 333 332 329 327 325 322 317 316 314 314 315 319 320 325 323 316 310 307 305 304 305 307 309 313 316 317 316 310 311 310 311 315 315 315 314 316 316 316 317 317 317 317 317 317 318 319 319 315 313 314 314 315 315 314 313 311
350 349 349 349 348 349 348 348 348 348 348 347 347 346 346 346 345 343 343 342 340 338 336 334 333 333 334 334 334 333 332 330 328 326 324 321 321 318 315 316 317 317 319 320 315 314 310 313 314 313 316 313 319 322 321 317 313 310 312 314 314 315 316 316 316 317 318 317 317 317 315 316 316 317 316 313 312 313 313 315 313 312 312 309 307
349 348 348 347 347 347 347 351 342 334 331 333 334 337 342 346 344 342 341 342 339 337 336 334 332 333 334 334 333 332 331 330 329 327 326 325 324 321 320 322 321 321 321 323 323 322 318 317 313 317 320 317 315 316 316 316 316 314 313 314 315 317 321 325 326 320 319 319 316 315 315 315 314 313 312 310 310 312 313 314 313 310 310 308 304
348 348 347 347 346 344 339 334 330 323 317 311 307 307 311 325 330 322 315 313 331 339 336 335 334 335 335 334 333 331 331 330 330 322 328 319 324 324 323 324 324 323 323 320 327 327 322 318 318 319 318 318 317 316 315 316 317 318 318 318 318 319 319 318 318 316 315 314 315 314 315 313 311 311 311 309 310 310 310 310 309 307 306 304 303
346 346 346 346 343 339 335 331 328 324 320 317 314 310 305 296 303 320 316 313 307 314 324 335 337 336 335 335 334 333 331 333 320 311 310 309 310 312 314 314 314 321 319 315 324 325 324 321 321 321 321 319 318 318 318 318 318 319 319 320 320 320 319 319 318 317 317 316 314 313 311 309 307 308 308 309 308 308 308 310 304 305 304 302 303
344 344 344 342 338 336 334 331 329 326 324 323 321 318 316 311 297 296 302 304 303 307 311 314 318 323 331 327 313 309 321 315 308 306 304 305 305 303 301 303 305 308 309 317 321 323 324 323 323 322 322 322 321 321 320 320 320 320 320 319 318 317 316 315 314 313 312 312 311 310 310 310 307 308 306 307 307 306 306 306 306 306 304 304 303
342 342 340 338 336 335 334 332 331 329 328 326 324 322 320 317 315 303 296 299 299 298 302 307 310 312 314 318 316 315 306 304 305 304 303 302 299 297 296 297 298 302 304 311 322 320 320 319 318 318 318 319 319 322 322 321 320 320 319 318 318 317 316 315 316 311 309 309 308 308 307 306 306 306 306 306 305 302 301 302 302 302 304 304 304
341 340 339 338 337 337 334 333 332 331 329 327 326 324 323 321 318 316 311 300 297 296 296 296 298 302 304 305 308 309 303 301 301 300 299 298 297 296 295 295 298 301 308 317 320 318 318 318 319 318 318 318 318 318 319 321 321 320 317 316 316 317 316 315 313 312 310 310 308 307 306 305 305 304 305 303 302 301 300 301 301 302 304 302 304
342 340 339 338 337 336 335 334 333 332 331 330 328 327 324 322 320 319 319 319 318 308 300 296 295 296 294 294 295 295 296 296 297 296 296 296 296 297 300 301 294 299 310 319 319 316 316 317 318 318 320 319 315 315 314 314 314 313 313 314 312 310 311 310 306 306 307 307 306 306 305 303 304 302 300 300 301 301 302 302 303 301 300 301 301
343 347 347 343 337 337 336 336 336 335 333 332 331 329 326 324 323 323 323 322 321 318 316 310 299 294 301 298 294 294 295 295 296 296 296 296 297 296 301 314 316 314 313 314 316 315 315 316 317 316 314 314 315 316 313 314 314 314 312 312 311 309 308 307 306 306 305 304 304 304 304 304 302 303 302 301 300 300 301 302 300 301 300 300 300
343 342 341 341 338 337 337 336 336 336 334 334 333 331 328 326 325 326 324 324 320 316 312 306 302 299 295 293 293 294 294 295 295 296 296 296 296 302 316 316 315 314 314 313 314 315 317 316 315 314 314 314 314 312 313 313 313 313 310 309 309 309 308 306 307 305 306 305 304 305 303 302 302 302 302 301 302 302 300 300 301 302 302 300 301
341 340 339 338 338 337 337 336 335 335 333 333 333 332 330 328 328 327 327 324 320 315 309 306 306 306 306 304 297 293 292 293 293 293 293 294 294 306 316 317 315 316 314 314 314 315 315 316 315 315 315 314 314 315 314 313 313 314 313 313 308 306 306 306 306 309 304 304 303 303 303 302 301 303 302 301 301 300 301 303 301 301 301 303 305
340 339 338 338 337 337 335 334 333 331 332 332 333 332 331 330 329 328 327 324 319 314 310 310 312 310 308 305 308 305 297 294 294 297 297 300 305 310 311 314 315 315 315 315 315 316 316 314 316 315 314 313 311 310 310 311 310 309 310 309 308 308 312 310 311 306 307 304 303 303 304 304 303 302 303 300 299 299 299 300 299 299 300 303 302
334 330 329 331 332 334 333 331 331 331 331 331 331 331 330 330 330 329 326 321 318 316 314 313 312 312 310 308 309 307 306 307 308 309 309 308 309 310 311 312 313 313 316 317 322 319 315 314 314 314 313 312 312 310 309 310 311 310 308 307 307 307 306 305 305 306 306 304 304 304 304 301 301 302 301 299 299 299 298 299 299 300 299 299 300
333 332 330 329 330 330 331 331 330 330 331 330 329 329 329 330 329 327 323 321 319 318 316 315 315 314 312 311 309 307 309 310 311 311 311 311 311 312 311 312 312 313 316 315 316 316 315 313 315 313 311 310 310 309 309 310 311 308 307 306 304 303 304 303 303 303 303 303 302 301 301 301 302 300 299 300 300 299 299 299 300 300 299 300 301
333 333 335 329 328 330 333 331 329 330 331 330 330 329 328 329 328 327 324 323 321 320 319 319 318 315 312 310 305 305 313 313 314 314 314 313 313 312 312 313 314 316 317 314 313 313 314 313 312 312 312 311 313 312 310 309 307 306 306 305 303 304 304 304 303 303 303 303 302 301 300 300 300 299 298 299 303 301 301 301 299 299 300 301 301
332 331 331 330 331 331 329 330 331 334 332 331 330 329 330 329 328 327 326 324 323 322 321 321 319 315 309 304 301 301 314 317 316 315 316 315 314 314 315 314 317 316 317 315 314 314 314 314 314 313 313 313 311 310 309 308 307 306 306 304 303 303 304 303 304 304 305 303 302 301 299 301 301 302 302 304 300 299 299 299 299 299 300 301 301
332 332 333 333 332 332 330 331 331 330 329 327 327 332 330 328 328 328 327 325 324 323 321 320 318 316 312 305 305 303 313 317 321 317 316 315 315 315 316 316 314 315 316 317 315 313 313 313 313 313 312 312 312 310 309 308 305 304 303 304 303 302 302 303 302 302 301 301 300 302 301 301 302 300 300 301 300 300 299 300 300 300 300 300 300
328 331 331 331 331 332 331 330 330 329 328 329 329 327 328 327 327 327 326 324 323 322 320 318 316 314 312 308 306 307 314 316 317 318 317 318 317 317 317 316 315 315 317 316 315 315 313 311 310 308 307 306 306 307 306 305 304 303 303 301 302 303 300 301 301 301 300 299 301 301 301 301 302 299 301 302 299 299 300 301 301 300 301 300 300
330 329 329 330 330 329 329 329 328 328 328 328 326 326 327 324 324 323 323 323 323 321 319 318 317 316 314 313 313 314 316 316 318 318 317 317 316 315 315 316 316 316 315 313 311 309 309 309 309 309 308 307 306 305 304 305 305 303 301 300 300 300 300 300 300 301 301 301 300 301 300 299 297 296 298 298 301 301 300 300 300 303 301 300 299
331 330 329 329 329 328 328 327 326 325 324 323 323 322 323 323 322 322 322 322 322 320 319 318 318 317 317 316 316 316 316 315 316 316 316 316 315 314 315 315 314 313 311 309 309 309 308 309 309 309 308 306 305 305 304 304 303 302 300 300 300 300 300 299 300 300 299 299 297 297 297 297 296 297 303 301 301 301 300 300 301 301 300 299 299
328 326 325 326 326 325 326 325 325 325 323 322 322 321 320 320 321 322 323 322 321 321 320 319 318 317 317 317 317 317 317 316 315 315 316 316 315 315 314 313 312 311 311 310 309 309 308 307 307 308 308 307 306 304 302 301 301 300 300 297 297 297 297 297 297 296 296 298 297 294 295 296 296 297 300 301 301 300 301 301 301 301 299 299 298
329 328 326 329 327 325 325 325 325 326 322 322 321 321 320 320 320 319 318 321 321 321 320 319 318 317 317 316 316 315 315 315 316 317 316 316 315 315 314 312 311 310 310 309 309 308 307 307 308 307 307 306 306 304 301 299 298 294 293 293 292 292 296 296 294 293 292 294 295 296 296 295 296 297 299 299 298 299 300 301 301 299 299 299 300
326 325 324 326 326 326 324 325 323 321 321 321 320 320 319 319 319 319 318 317 318 319 319 318 317 316 315 315 315 315 314 316 313 314 314 315 315 317 314 312 312 311 310 309 309 308 308 308 307 307 307 306 305 303 302 301 297 294 292 290 293 294 291 293 292 292 293 296 294 294 294 294 295 296 297 298 299 300 301 301 298 299 299 299 300
327 328 326 325 325 324 325 323 323 322 322 321 319 317 318 318 318 318 318 317 316 316 317 317 316 316 316 316 315 315 314 314 313 313 312 312 312 314 313 312 311 310 310 309 309 309 309 308 308 308 307 305 304 304 302 301 297 294 292 291 291 288 288 288 290 292 290 290 291 291 292 294 294 295 295 297 298 299 300 301 301 300 300 299 300
326 326 325 324 324 323 323 321 320 318 317 316 317 317 317 317 316 317 316 316 315 315 316 314 316 316 315 315 315 314 313 312 312 311 310 312 312 313 313 312 310 309 309 309 309 308 308 308 308 308 307 307 305 304 302 300 297 294 292 291 289 289 289 290 289 287 290 290 290 292 293 294 295 295 295 296 297 299 302 303 302 300 300 300 300
Wind_Speed
17 16 15 16 15 16 16 14 14 13 13 13 13 12 11 12 12 12 10 11 12 12 12 12 13 13 12 11 11 11 11 10 9 8 7 7 7 7 6 7 7 5 6 6 5 5 6 6 6 6 5 5 5 5 5 5 5 6 5 6 6 4 4 5 5 7 4 4 5 5 5 4 3 3 4 4 4 5 5 4 5 5 5 6 6
17 16 15 15 17 16 16 14 14 13 14 13 13 12 12 12 12 11 13 11 12 13 14 12 12 12 12 12 12 12 11 10 10 9 8 8 8 7 7 8 7 7 5 6 6 6 6 6 6 6 5 6 5 5 6 6 5 5 5 6 7 6 6 6 6 5 7 2 5 4 3 3 4 2 4 4 5 4 4 5 4 5 6 6 6
16 16 15 16 17 16 15 14 14 15 15 13 14 13 12 12 12 13 13 11 11 12 13 13 13 13 12 13 12 12 11 11 10 10 10 10 9 7 8 8 9 8 8 7 7 6 6 7 7 6 5 5 5 6 6 6 6 6 7 6 7 7 6 7 6 6 7 6 5 4 3 2 4 3 3 4 4 4 4 5 5 5 5 6 6
16 16 16 16 16 15 15 15 16 16 16 14 15 14 13 12 12 13 13 12 12 11 13 13 13 13 13 13 13 12 12 11 11 10 10 9 8 7 6 7 8 8 8 8 8 7 7 6 6 6 5 5 5 6 6 6 6 6 6 6 7 7 7 6 7 6 5 5 3 5 3 4 4 4 4 4 5 5 5 5 4 5 6 5 6
16 17 17 17 16 16 17 16 17 17 17 15 16 15 15 14 12 14 13 13 12 12 12 13 13 14 13 14 13 12 12 12 11 10 8 6 7 8 7 6 6 8 9 9 8 8 7 7 6 6 6 6 6 6 6 6 6 6 6 6 6 6 5 6 6 5 5 6 5 3 4 4 4 4 4 6 6 5 4 6 6 6 5 6 5
17 17 17 17 16 18 17 17 17 18 18 16 17 16 15 14 14 13 13 14 13 13 15 13 13 14 14 13 13 13 11 11 11 9 9 10 9 8 8 7 7 7 9 9 9 8 7 7 6 6 6 7 7 6 6 6 5 6 6 6 6 5 6 6 6 6 6 7 6 5 3 4 3 4 4 5 6 6 5 6 5 5 5 5 5
17 17 18 18 17 18 17 18 17 17 17 17 15 15 16 15 15 15 14 14 15 14 14 15 13 13 13 13 13 13 11 11 10 9 9 9 11 11 10 9 7 6 7 9 9 8 7 6 6 6 7 7 7 6 6 6 6 6 7 7 6 5 6 6 6 6 6 6 5 5 5 4 4 6 5 4 5 6 6 5 6 5 4 6 7
17 18 18 18 18 18 18 17 16 16 16 15 15 16 15 14 15 14 14 15 15 15 15 15 13 12 12 12 12 11 11 10 11 12 12 13 12 12 12 11 10 9 8 8 7 7 6 6 6 6 7 6 6 5 6 7 6 6 6 5 6 6 6 6 5 5 6 5 6 6 5 6 3 3 3 2 3 4 5 6 8 7 7 5 7
18 17 17 18 18 18 16 15 14 15 16 15 15 15 16 15 14 14 14 14 12 14 14 14 13 12 12 12 12 11 11 11 11 13 14 13 12 14 13 13 11 9 8 7 7 6 5 6 5 6 7 9 11 10 10 9 7 7 6 6 6 6 6 6 6 6 6 6 6 4 4 5 5 5 5 5 6 7 6 4 6 6 6 6 6
18 17 18 18 17 16 16 15 15 16 16 16 16 16 15 15 14 14 15 15 13 13 13 13 13 13 13 12 11 11 10 9 14 22 19 13 13 11 10 10 11 9 7 6 6 6 7 6 5 10 11 12 13 14 14 14 13 10 7 6 6 6 6 6 6 6 6 7 7 6 6 7 7 6 6 6 6 5 5 5 5 6 3 5 4
18 18 18 17 16 16 15 16 15 16 16 16 16 15 15 13 13 13 14 14 14 12 12 14 14 13 13 13 13 11 10 9 18 22 22 20 13 11 11 10 10 9 8 8 8 7 7 7 5 3 6 9 10 14 14 14 13 13 12 11 9 8 6 6 6 6 6 7 6 6 7 8 8 6 6 6 6 7 7 6 6 3 3 3 5
19 19 17 16 16 17 16 16 16 16 16 16 15 15 13 13 12 12 13 14 13 11 12 14 13 12 11 12 12 11 9 12 19 22 21 19 15 11 9 9 9 9 9 9 8 7 6 5 3 3 3 6 7 6 9 11 12 13 13 11 10 10 9 7 6 5 4 6 6 7 6 7 7 5 5 4 3 3 3 3 3 3 4 4 3
18 18 17 17 17 17 16 16 17 16 16 15 13 13 13 13 13 12 14 13 11 12 13 12 12 12 12 13 12 11 10 14 18 21 20 19 17 13 8 9 9 8 8 8 8 7 7 5 3 2 5 10 6 1 3 6 7 10 10 9 10 11 12 11 7 6 4 6 7 8 8 6 6 6 3 0 3 5 5 6 6 6 5 6 5
17 18 17 18 18 17 16 16 16 16 14 13 12 12 13 14 12 10 9 10 13 12 10 11 11 12 12 12 12 10 9 14 18 20 21 21 17 10 4 6 7 7 7 7 7 7 7 6 5 5 7 1 6 5 4 6 4 7 7 5 7 10 11 11 11 12 10 8 7 9 9 5 6 2 1 2 4 7 5 5 3 5 7 7 6
16 17 17 17 17 16 16 16 15 14 14 13 12 12 13 11 11 9 10 12 12 11 10 11 11 11 11 11 10 10 8 16 19 20 20 17 8 2 4 3 3 6 7 8 6 6 6 6 6 5 2 4 2 5 5 2 1 5 7 8 7 7 6 6 5 6 6 7 8 10 9 6 7 8 6 4 7 8 6 7 7 8 8 4 4
15 15 16 16 17 16 16 15 14 13 13 12 13 12 12 11 11 8 8 8 8 8 8 10 11 11 10 10 9 9 8 18 19 20 17 15 9 8 8 7 7 7 6 6 5 6 6 7 3 5 4 3 5 9 6 5 6 7 8 10 8 5 5 5 7 7 7 7 7 8 8 8 7 7 6 7 6 6 4 3 3 5 4 5 7
15 15 16 16 15 15 15 15 14 13 13 13 12 12 11 10 8 7 8 8 8 9 9 9 9 10 10 10 10 8 8 16 19 19 19 23 18 11 10 8 7 7 7 4 4 5 4 4 5 5 4 4 4 5 12 10 7 8 9 8 7 6 7 5 8 13 14 13 10 8 6 6 7 7 7 7 6 3 4 5 7 6 5 6 7
14 15 15 15 15 15 15 15 14 13 13 13 12 10 9 8 8 8 9 9 10 10 9 8 9 10 11 11 12 11 10 16 23 23 23 25 19 13 11 10 6 5 6 5 6 5 4 5 2 2 4 3 9 14 11 8 7 8 7 7 6 6 5 4 4 4 5 6 7 9 10 11 11 11 11 12 12 6 5 8 6 2 5 5 6
13 15 15 15 15 14 14 14 14 14 13 11 11 10 10 10 8 8 8 8 10 9 9 9 8 7 9 10 13 13 12 16 22 21 21 20 16 11 11 9 8 7 7 6 5 6 5 6 12 10 6 10 15 15 15 10 8 8 7 5 6 6 5 2 2 1 2 2 3 3 4 7 6 5 7 12 13 10 8 9 4 2 3 6 7
12 12 13 13 13 13 13 14 13 13 12 11 10 10 9 8 9 9 7 6 6 6 6 7 8 7 8 10 11 13 14 10 12 20 19 19 20 12 8 9 9 8 7 7 6 3 6 7 9 13 15 15 15 12 10 12 8 6 4 6 5 6 1 0 1 1 1 2 4 4 5 5 5 5 6 6 6 5 7 6 5 6 8 9 8
12 13 13 14 14 14 13 14 15 13 13 12 11 10 9 9 8 7 7 6 7 7 8 6 7 6 7 9 10 9 10 13 13 18 20 20 19 16 9 9 7 7 7 7 8 10 9 8 7 11 15 14 11 10 11 10 9 5 5 5 4 2 3 0 2 4 3 3 3 4 5 5 5 5 5 3 1 1 1 4 5 6 7 6 5
14 14 15 15 15 15 14 13 12 11 11 11 10 9 7 8 8 9 7 7 8 8 7 8 8 7 6 8 9 9 12 17 13 16 17 16 16 14 8 7 9 8 8 8 9 7 8 8 7 10 12 11 13 13 12 11 8 3 2 5 6 4 0 0 2 3 4 5 4 4 4 4 4 3 1 0 1 3 4 4 3 3 4 6 7
15 15 14 14 14 13 13 13 11 9 10 10 11 10 9 8 8 9 8 8 9 9 9 9 9 8 7 6 7 9 10 13 18 13 15 16 18 13 13 10 12 9 9 8 8 9 8 7 5 3 4 6 6 6 7 8 5 3 7 6 5 3 0 1 2 3 5 5 4 5 5 5 4 3 4 6 5 3 2 1 1 2 3 3 4
15 15 14 14 13 12 12 11 10 9 10 10 9 9 8 6 7 8 9 9 9 9 7 8 8 9 9 7 6 6 8 8 10 15 14 17 17 14 14 14 13 9 8 8 7 6 6 3 3 6 7 8 8 8 9 7 5 8 9 7 6 3 2 2 3 4 4 4 5 6 5 4 5 5 5 5 4 2 2 2 2 3 4 4 5
15 14 14 13 13 11 11 9 9 8 8 9 9 8 7 8 8 8 9 8 8 8 8 8 9 9 8 9 8 7 7 8 8 11 14 14 15 15 15 14 11 9 6 3 2 2 3 7 9 9 9 9 10 9 7 6 7 7 7 7 6 3 3 4 4 4 4 5 6 5 4 5 6 6 5 4 1 1 1 3 3 3 4 3 3
14 14 13 13 13 12 11 9 8 8 7 7 7 6 7 7 7 6 7 8 8 8 8 7 8 8 8 8 8 8 8 8 9 7 7 11 12 14 12 9 7 5 3 4 5 8 10 10 9 8 8 7 5 2 2 4 6 5 4 5 3 3 3 3 3 5 6 6 5 5 6 5 4 3 2 0 0 2 2 3 4 5 4 3 5
14 13 13 13 12 12 11 9 9 9 8 8 8 7 7 7 7 7 6 7 7 7 7 8 7 8 8 8 8 8 8 8 7 5 6 6 6 6 5 4 3 3 2 4 5 5 6 5 4 6 3 6 3 4 4 4 4 2 3 3 3 4 4 5 6 7 6 6 6 6 6 6 2 2 3 1 3 4 3 3 4 4 3 3 4
14 14 14 12 11 11 10 13 11 8 8 8 7 6 5 6 7 7 7 7 8 6 7 7 8 8 8 8 8 8 9 8 8 9 8 7 7 6 6 5 5 4 5 4 4 4 4 2 2 1 2 2 1 1 1 2 3 3 4 4 5 5 7 9 8 6 7 6 5 5 3 1 2 2 2 3 4 5 4 3 1 3 3 3 4
14 14 13 12 11 10 10 10 10 10 9 10 8 7 6 5 6 6 5 3 2 8 7 6 7 7 8 9 9 8 7 8 9 8 9 10 10 9 7 7 6 6 7 7 4 5 4 4 3 3 2 2 2 3 4 4 4 4 4 5 5 6 6 6 6 7 7 6 6 5 4 2 2 2 2 3 3 4 3 2 2 2 5 3 5
14 13 12 11 11 11 10 10 10 10 10 10 10 9 13 12 10 5 2 5 4 3 8 7 8 7 7 6 7 11 10 9 10 13 13 12 11 10 7 8 8 7 8 10 7 5 5 5 5 5 5 4 5 5 6 5 5 5 6 7 7 7 6 6 6 7 6 5 4 3 3 2 2 2 1 3 5 5 4 2 3 4 3 5 6
11 11 11 10 11 10 10 9 9 9 9 9 9 10 8 11 14 14 9 6 6 6 13 14 15 14 12 8 2 7 4 13 15 15 15 15 14 12 10 10 10 9 11 8 4 5 6 6 5 4 5 5 6 7 7 6 6 7 7 7 6 6 5 6 5 2 2 3 2 2 1 0 2 3 3 3 3 3 4 3 3 4 5 6 6
11 10 10 11 12 10 10 10 10 10 8 8 8 9 8 9 8 12 13 12 14 14 11 13 16 16 15 13 9 3 3 7 14 14 13 13 12 11 9 9 7 8 11 11 6 5 5 4 4 4 5 6 6 7 7 7 6 7 7 6 6 5 5 5 2 5 3 2 1 0 0 1 2 3 3 2 1 3 5 6 6 6 6 6 6
11 12 11 11 11 11 10 9 9 9 9 9 8 7 8 8 9 7 9 13 16 16 16 15 14 11 11 9 9 9 10 9 12 12 12 12 12 11 10 7 6 6 8 5 4 2 1 0 2 3 3 6 5 4 5 6 6 5 4 4 2 1 1 2 3 3 3 1 1 2 3 3 2 2 3 3 4 5 5 6 6 6 5 5 5
12 11 10 10 10 9 9 8 8 8 8 8 8 8 7 7 8 8 8 6 8 11 15 17 14 13 12 10 11 12 12 12 11 12 13 13 13 12 11 5 4 4 4 5 4 3 2 2 4 4 2 1 5 5 6 6 6 5 3 4 5 5 4 4 5 3 3 3 3 2 2 2 2 3 4 5 5 4 5 5 5 5 6 6 6
11 14 19 12 9 9 9 8 9 8 8 8 8 8 8 7 7 7 8 8 7 6 4 6 11 12 8 8 9 12 13 13 13 13 13 13 12 11 11 7 4 1 1 1 3 4 2 2 1 3 5 4 5 5 6 5 5 4 5 4 5 4 3 5 4 3 3 3 3 2 2 2 3 3 3 4 4 6 4 4 5 5 4 6 7
11 9 9 11 9 8 8 8 8 8 9 9 8 9 9 8 7 6 6 6 7 7 5 5 4 7 12 11 10 11 12 12 12 11 11 10 11 10 7 5 5 4 5 4 4 3 2 3 6 6 6 6 4 4 5 5 4 4 3 1 3 5 6 4 3 3 2 1 0 1 3 3 3 4 4 3 3 3 4 4 5 4 6 7 7
8 8 8 7 7 7 7 7 7 8 8 8 8 9 8 7 7 7 7 7 6 5 6 6 6 6 7 6 8 10 10 10 9 8 7 6 4 2 3 6 6 5 4 4 2 3 2 2 5 4 5 6 5 4 4 4 5 5 5 5 4 5 4 4 3 2 1 0 1 2 1 3 5 5 3 2 3 4 4 4 5 6 7 9 8
8 7 7 7 6 6 6 6 7 9 8 8 9 10 9 8 7 7 7 7 7 8 7 5 5 7 7 4 3 3 5 6 8 7 3 2 2 3 3 3 2 3 3 3 4 5 4 4 5 6 4 5 6 5 5 5 5 4 3 2 2 3 3 2 2 1 1 1 3 2 2 3 5 3 3 3 4 4 5 5 6 7 7 8 6
5 11 13 12 9 8 6 5 5 6 7 8 9 9 9 8 8 7 7 8 8 7 7 6 6 6 6 6 6 6 8 5 6 6 5 5 4 4 2 1 1 2 2 4 5 5 6 6 5 6 6 6 6 4 5 4 4 3 2 4 3 3 2 2 1 0 2 4 4 3 3 2 2 3 2 4 4 4 6 6 6 6 6 7 7
8 8 10 12 8 7 6 6 5 6 6 7 8 7 8 8 8 8 8 8 8 7 7 7 7 6 7 7 7 7 6 6 6 6 5 5 5 4 3 3 4 5 4 3 6 7 6 6 6 6 5 5 6 6 4 3 3 2 4 5 4 2 1 1 1 2 2 2 2 1 2 3 1 2 4 4 5 5 6 6 5 6 6 6 6
7 7 7 7 8 7 6 6 5 5 4 6 7 7 8 9 8 9 8 8 8 7 7 7 6 7 8 10 12 11 7 7 6 6 6 5 5 5 5 6 6 5 4 6 7 7 7 7 7 6 6 5 5 6 5 4 3 2 4 3 2 1 1 1 2 3 4 2 1 1 3 3 2 4 4 4 5 6 5 4 5 7 7 6 6
8 7 7 6 6 5 5 4 4 4 5 4 5 6 7 8 9 9 8 8 8 7 7 6 7 8 10 16 16 14 7 6 5 6 6 6 6 6 6 6 5 5 7 6 6 7 6 6 5 6 6 6 6 6 4 2 1 1 2 3 3 3 3 3 1 0 1 2 6 4 2 2 3 3 2 4 5 4 5 6 6 6 6 7 6
9 6 6 6 3 1 5 4 4 5 5 5 4 5 5 8 8 8 8 8 7 6 6 6 7 7 8 13 14 13 4 4 6 6 6 6 6 6 5 5 6 6 6 7 6 6 5 5 5 4 5 5 3 3 4 4 5 5 4 3 3 3 3 1 2 5 5 4 3 4 4 4 4 4 4 4 4 6 6 6 6 6 7 7 6
5 4 5 7 4 4 4 5 5 6 6 7 6 7 8 6 6 7 7 7 7 7 7 7 8 7 6 6 7 6 4 3 4 6 7 7 7 6 6 6 5 5 5 6 6 6 7 7 7 7 6 6 6 5 6 4 5 5 4 3 2 3 4 4 4 4 3 4 4 4 5 5 5 5 5 4 5 6 6 5 6 7 7 6 6
2 4 4 7 6 6 3 4 6 6 6 6 6 6 6 7 7 7 8 8 8 8 7 7 7 7 6 6 6 6 6 5 2 2 6 6 6 6 7 7 6 6 6 7 7 7 7 7 6 5 5 5 5 6 5 4 4 5 5 4 5 5 5 5 4 4 5 5 5 5 5 6 5 6 6 6 6 5 5 5 6 6 6 5 6
1 3 2 3 7 6 6 7 6 5 6 7 6 6 6 6 7 7 9 9 8 8 8 8 7 7 7 7 7 7 6 4 3 4 5 7 6 5 5 6 5 7 7 7 7 7 7 7 8 7 7 6 4 4 5 5 4 4 4 6 6 5 3 4 4 6 5 5 5 4 3 3 4 4 6 6 6 6 6 6 6 5 4 6 7
7 6 8 6 6 3 6 3 4 7 6 6 6 6 7 5 6 6 9 11 9 8 8 7 7 7 7 7 7 6 6 6 5 5 4 4 5 6 6 6 6 7 7 7 7 8 8 7 7 8 7 7 6 5 5 5 6 5 4 5 6 4 5 5 5 5 4 3 4 3 1 1 3 4 6 6 6 6 6 7 6 5 5 6 6
5 6 6 3 1 1 5 3 4 3 6 6 6 6 6 6 6 6 7 10 10 8 8 7 7 7 7 7 7 7 6 5 4 4 4 4 6 4 6 7 8 8 8 8 7 7 7 7 7 7 8 7 6 6 5 6 7 6 5 4 4 4 6 6 4 3 3 2 2 1 1 2 3 4 4 5 5 6 6 7 5 4 6 6 7
6 5 3 6 4 5 6 4 5 4 6 6 6 6 6 6 6 6 6 8 8 8 8 8 7 7 6 6 5 6 4 4 4 4 4 4 3 3 7 8 7 7 7 7 7 6 6 7 7 7 7 7 7 7 6 5 7 6 5 4 5 9 10 8 5 4 4 3 3 3 3 2 3 4 5 5 6 6 7 5 4 5 6 6 7
5 4 5 3 4 4 3 6 6 3 2 6 6 5 6 6 5 4 5 7 6 7 8 8 7 7 7 6 5 6 5 5 6 6 5 4 3 6 7 7 6 7 7 7 7 7 7 7 7 7 6 6 6 7 6 7 7 7 6 6 8 10 9 9 8 7 5 3 2 2 2 2 3 4 5 5 5 6 6 5 6 5 6 7 7
5 5 6 5 5 4 5 6 5 5 5 6 4 4 5 6 6 6 5 4 4 6 7 7 8 8 7 7 7 6 7 7 7 7 7 5 4 6 7 7 8 8 8 8 8 7 7 7 7 8 7 7 7 7 6 7 7 7 9 12 12 10 9 8 5 5 5 3 0 1 2 3 3 4 5 5 6 6 6 7 7 6 6 7 7
Wind_Direction
189 192 191 195 193 193 192 189 189 188 187 189 190 187 183 182 184 182 178 183 179 180 179 176 176 178 179 180 180 182 183 186 186 183 181 189 190 186 186 189 197 198 191 198 191 186 194 200 201 195 180 178 187 187 185 194 190 191 196 196 209 203 181 195 219 255 281 246 243 248 253 241 272 222 247 252 255 257 249 239 234 223 218 225 235
190 190 193 194 195 194 192 189 188 186 189 191 192 188 186 184 182 181 189 182 180 180 181 178 178 177 180 184 184 185 184 183 184 182 186 189 194 191 191 190 196 197 186 193 199 198 198 203 205 198 189 184 189 196 201 198 192 197 199 192 202 211 202 196 221 228 253 272 254 256 260 232 252 253 226 248 269 282 287 280 260 236 228 228 233
189 191 193 195 197 194 189 190 188 188 190 192 193 191 190 185 183 186 188 185 182 181 181 180 180 181 183 186 185 186 184 183 184 185 189 191 191 193 195 196 196 199 196 198 200 199 195 196 191 183 181 187 195 199 194 197 195 197 207 201 205 210 207 202 200 225 239 248 221 238 235 243 212 252 248 217 227 227 250 268 262 254 241 234 236
190 192 195 198 196 191 192 191 190 190 193 193 193 192 191 189 186 188 187 185 184 183 181 182 183 185 186 187 187 185 185 185 185 187 189 189 192 197 202 200 200 202 202 202 204 204 203 194 195 182 181 189 204 204 203 196 201 207 209 206 198 204 209 206 208 211 220 239 247 210 229 217 253 245 249 249 243 243 231 252 257 257 260 258 250
190 193 195 197 195 195 194 192 192 193 194 193 194 192 192 191 190 190 186 188 185 180 185 185 187 188 190 188 187 188 187 184 182 181 179 183 193 204 209 206 202 205 204 201 201 205 206 200 196 183 181 195 213 212 207 207 208 205 213 214 207 206 205 204 213 206 220 243 256 229 220 229 228 228 225 248 261 251 249 240 243 245 257 261 265
192 192 195 196 197 197 196 194 194 194 194 194 194 194 194 192 191 191 188 188 185 186 186 189 190 191 192 190 189 189 184 181 177 169 174 184 191 201 209 213 209 204 205 202 201 202 205 202 193 190 188 198 214 212 205 208 206 211 216 217 212 208 211 218 216 222 228 241 237 262 237 227 268 244 228 221 240 259 265 260 265 254 244 266 265
193 193 194 196 198 199 197 197 195 194 194 195 194 195 196 193 191 193 191 190 187 188 190 191 193 191 192 189 191 188 182 176 162 162 179 186 192 201 204 210 214 211 208 203 202 203 208 206 203 199 201 205 211 212 209 214 212 217 217 217 212 204 209 213 215 221 225 241 250 235 252 246 219 264 264 227 227 225 239 260 264 256 242 232 259
192 193 194 196 198 199 199 197 194 194 195 195 196 197 197 195 194 193 191 193 191 190 190 193 193 191 190 191 191 186 179 171 164 171 183 192 196 193 201 202 206 212 214 212 204 207 209 206 198 195 199 204 206 215 204 211 210 217 218 211 209 209 216 218 217 215 224 233 239 253 239 257 267 248 281 314 295 282 243 228 247 260 258 242 231
192 193 194 198 199 198 197 195 195 194 194 195 197 197 198 197 194 191 192 196 194 193 192 191 189 190 190 190 188 185 179 174 171 176 191 194 195 199 197 198 200 203 209 208 208 208 213 214 208 207 207 213 217 218 218 212 208 219 225 210 213 211 219 219 218 212 222 226 249 242 247 253 253 264 276 261 240 244 247 226 241 241 251 271 272
191 193 196 199 197 196 195 194 193 194 193 195 197 198 197 195 193 192 193 195 195 190 190 189 191 190 188 189 189 186 183 177 178 183 193 191 194 199 197 198 197 197 193 197 210 213 216 217 216 214 218 224 226 225 223 220 216 214 212 205 211 212 217 220 218 214 215 225 234 235 243 246 246 237 241 245 247 253 260 249 245 249 247 250 280
191 194 198 195 194 193 193 194 193 194 195 196 197 195 195 193 191 191 192 193 194 189 185 188 191 189 189 189 191 190 184 181 174 184 193 195 191 196 194 194 195 194 189 196 203 209 216 218 213 243 249 242 238 233 227 227 227 226 222 207 200 198 207 217 222 208 214 226 233 232 237 248 246 235 233 241 236 241 245 236 236 234 235 254 273
192 196 195 189 191 192 192 191 192 196 196 197 194 193 191 190 190 188 189 191 192 185 186 191 189 185 188 191 193 188 184 177 175 186 194 195 196 196 193 189 192 194 193 197 202 205 204 189 170 198 238 251 235 226 224 226 227 230 233 228 223 222 214 204 213 223 224 230 236 235 240 243 253 234 244 245 258 292 289 304 285 272 277 268 249
192 193 190 187 190 190 189 190 193 193 195 194 191 189 189 189 189 187 190 188 183 188 192 185 186 184 187 190 191 187 186 172 176 184 192 195 199 196 191 193 192 190 188 189 192 186 185 187 199 212 255 245 239 199 39 7 314 273 256 260 265 255 251 251 249 238 224 229 236 246 238 246 249 238 192 100 15 327 309 295 287 280 261 255 250
190 191 188 188 188 187 187 187 190 191 189 188 185 186 188 191 190 185 177 179 188 191 185 179 177 184 185 187 189 187 186 169 174 180 188 191 196 191 190 196 199 194 189 183 179 177 187 187 200 208 230 294 51 68 67 70 10 324 308 279 256 256 250 233 228 229 227 232 235 247 250 213 232 190 135 185 222 252 243 253 272 293 282 263 255
189 188 188 187 184 183 183 184 185 183 182 181 180 183 187 185 183 175 173 181 185 184 178 176 180 182 183 182 185 185 184 164 173 179 184 183 160 27 261 239 212 199 189 190 177 178 173 197 204 202 118 115 161 98 108 120 312 290 287 274 251 247 245 234 212 214 219 225 227 236 247 228 233 248 235 206 226 240 227 236 251 253 261 273 287
188 185 186 183 182 179 177 177 176 174 172 173 175 178 178 178 179 168 161 167 171 163 171 175 177 179 179 178 177 183 166 165 172 175 173 122 115 226 236 231 215 199 189 174 177 168 175 197 163 128 173 153 149 144 139 173 198 233 251 261 256 249 245 234 236 239 232 218 217 226 232 233 226 229 227 223 221 216 218 243 254 253 269 280 270
187 184 183 179 176 172 170 168 167 166 166 165 169 169 169 171 168 154 152 160 162 169 170 173 171 173 174 174 171 173 148 172 166 167 150 147 177 206 220 220 197 191 191 173 176 191 181 154 167 182 161 175 169 198 214 194 215 225 234 239 242 251 260 259 240 241 246 247 241 241 241 242 239 235 244 250 237 228 207 242 261 261 261 269 270
184 177 176 172 168 165 163 161 161 161 161 165 164 160 161 161 166 161 161 167 173 173 164 161 168 173 172 173 176 165 163 174 172 171 160 168 175 195 213 206 199 173 173 176 172 163 156 164 163 188 188 176 211 219 227 221 224 227 225 228 238 245 256 262 270 264 261 251 252 251 252 257 261 262 256 249 241 214 183 228 240 205 247 253 275
174 172 168 162 158 156 155 154 154 155 157 158 157 160 167 170 171 168 169 169 174 174 168 169 161 161 166 169 160 150 158 181 179 160 164 172 180 200 202 202 192 181 164 156 151 143 139 210 216 209 179 222 227 220 215 196 210 218 222 216 233 245 247 272 266 268 306 302 287 267 264 255 255 258 263 255 249 230 212 225 214 104 321 279 278
165 154 147 146 146 145 145 144 146 149 153 155 162 165 161 160 169 173 173 163 157 162 165 167 160 158 152 152 151 161 173 167 161 165 169 183 188 193 194 193 193 178 155 146 140 170 212 222 218 207 205 220 229 222 214 198 206 213 195 213 224 246 204 52 295 272 250 226 247 251 252 259 258 253 251 250 246 203 205 213 187 189 230 255 258
144 142 142 142 142 142 142 145 149 155 158 160 159 161 162 161 156 160 157 148 152 160 161 149 139 134 135 141 146 155 155 156 174 177 182 186 187 189 184 188 167 156 162 158 175 200 213 212 213 226 225 232 245 238 230 222 219 211 195 210 209 156 92 19 298 321 322 298 290 272 264 259 261 259 264 265 294 336 251 212 205 198 204 224 248
141 141 143 144 143 142 143 145 148 150 154 154 156 156 152 153 159 162 158 152 149 147 142 138 132 128 127 133 143 147 154 157 171 191 183 177 179 191 173 176 169 167 174 191 195 204 212 207 208 230 238 238 242 246 233 216 203 174 123 114 111 113 101 254 318 305 287 287 275 277 282 291 290 300 292 207 255 261 270 275 257 233 214 214 227
140 138 137 138 139 140 142 146 146 147 145 148 152 159 161 159 159 157 148 141 141 144 147 144 139 134 130 138 146 151 159 171 171 173 179 169 184 187 177 170 182 176 184 196 196 203 212 212 202 196 234 243 230 204 161 136 125 136 130 137 137 130 121 297 264 268 268 270 276 275 279 278 286 288 287 283 281 288 255 237 257 239 246 246 238
134 133 134 135 135 136 139 139 138 144 148 148 146 150 157 149 143 146 142 143 145 146 146 142 142 144 146 148 150 152 159 159 170 172 170 177 186 184 181 182 186 189 191 200 204 207 211 196 139 144 138 132 133 136 139 141 152 155 157 159 168 175 200 229 242 244 255 261 263 266 266 262 263 272 268 267 256 217 232 254 261 272 273 279 282
131 132 130 130 129 132 130 130 134 140 143 143 142 142 143 142 144 151 147 143 142 145 155 152 153 156 155 155 156 154 154 161 165 178 173 178 187 191 195 188 196 198 192 192 140 166 146 132 136 142 142 137 133 132 132 133 136 158 169 176 188 184 193 212 228 239 244 243 239 237 246 252 241 243 247 238 245 358 334 292 287 283 281 278 280
128 127 127 127 129 128 127 120 118 120 115 112 113 116 122 121 120 128 131 137 145 150 157 156 153 153 152 150 157 158 156 163 173 176 183 182 192 198 193 180 183 189 103 116 125 133 136 137 138 134 131 135 133 141 149 178 184 171 177 187 198 200 206 211 233 230 236 239 233 236 240 245 259 252 260 259 74 297 284 300 309 303 312 309 318
124 124 124 123 122 124 123 122 114 108 107 102 103 107 115 118 121 124 130 137 143 148 151 152 148 144 142 143 146 149 159 171 168 162 160 160 173 161 177 184 137 114 119 125 117 117 134 147 173 185 168 169 142 122 126 117 126 165 208 210 217 224 220 214 220 222 225 227 231 235 238 242 255 358 333 5 319 291 271 269 266 264 280 289 299
125 124 121 120 120 120 120 113 101 87 68 71 71 69 86 122 122 121 134 148 149 151 150 151 151 152 147 146 146 150 157 158 163 169 167 162 162 160 175 171 178 187 188 182 165 152 156 153 123 173 142 115 71 65 99 150 171 170 202 211 218 228 232 232 230 228 232 220 227 235 252 317 315 261 261 284 273 280 275 265 228 281 284 306 313
113 114 114 113 112 109 103 103 104 99 88 76 64 44 28 25 85 82 28 7 130 146 151 145 147 148 147 149 147 148 154 169 192 175 165 166 164 165 171 181 176 188 198 183 166 169 142 149 184 175 174 159 162 189 198 191 212 212 217 220 224 224 227 225 228 228 231 233 244 245 253 238 241 257 268 296 291 281 279 287 280 281 300 293 275
109 111 113 114 113 109 108 105 106 106 102 101 96 74 58 52 25 51 75 9 348 220 135 149 149 138 136 145 150 157 177 191 156 137 139 146 145 154 165 175 184 179 185 191 179 181 178 186 196 199 194 189 194 198 205 199 209 220 225 222 219 219 222 227 232 241 239 224 232 228 210 191 253 274 282 260 273 285 286 288 292 307 303 293 290
108 113 115 112 112 112 112 108 106 106 109 111 103 105 89 50 48 38 31 16 44 101 142 138 139 146 148 147 23 9 148 148 151 153 148 154 154 153 158 169 180 191 182 166 213 198 181 196 200 205 214 213 216 213 207 197 201 208 215 220 225 219 213 213 216 184 133 117 117 147 177 167 235 242 249 274 293 302 315 309 304 303 288 282 284
119 113 106 112 113 114 114 116 117 115 116 115 113 112 100 96 50 39 42 48 51 53 68 117 135 140 144 141 136 62 59 146 150 151 150 143 143 142 139 143 157 157 180 176 186 185 150 173 194 217 225 230 236 219 202 186 180 195 200 207 224 223 220 243 179 125 135 131 132 124 308 312 323 335 334 327 315 322 326 319 310 302 294 287 279
113 112 116 117 118 120 122 124 126 125 124 118 114 116 120 115 108 92 41 54 62 60 57 49 54 75 103 117 131 145 151 153 152 140 133 131 127 124 113 105 114 142 136 152 166 151 150 189 285 268 255 253 235 165 153 163 167 170 168 181 193 91 89 127 113 79 62 67 119 76 67 53 28 2 339 326 333 320 308 300 296 291 286 298 300
117 120 124 125 121 121 121 122 121 121 121 122 126 125 121 120 126 124 116 100 67 57 50 46 49 66 59 75 100 103 109 117 120 122 126 132 131 130 124 103 80 43 119 157 150 177 187 206 248 263 269 78 71 77 79 84 96 99 103 96 111 123 129 110 92 105 102 84 79 83 65 27 352 341 317 311 307 301 294 289 292 306 314 302 296
111 120 122 120 120 123 124 126 129 131 132 133 131 127 122 131 134 129 130 127 124 114 107 55 38 35 73 81 86 101 108 111 118 127 131 137 137 134 112 111 107 107 88 108 149 158 155 190 186 119 93 90 89 92 96 96 95 103 102 108 136 156 127 97 104 98 88 63 36 3 337 327 307 298 291 290 292 308 302 305 314 314 305 308 308
112 114 113 117 118 123 128 134 137 139 141 142 139 128 131 132 127 121 114 113 121 121 98 66 68 59 68 68 79 92 97 103 113 122 133 141 151 142 137 153 155 178 182 190 176 187 182 186 127 126 126 123 127 111 106 110 109 118 143 102 74 80 99 112 117 105 107 104 65 300 301 299 302 308 305 302 295 294 308 322 314 308 311 307 299
109 114 118 121 124 126 127 132 136 139 139 137 125 122 129 132 131 130 129 130 120 115 115 124 115 91 74 65 75 72 75 89 94 102 114 136 168 205 170 161 171 176 173 188 172 205 205 187 148 129 116 112 100 96 75 69 56 55 40 66 109 119 135 145 155 131 120 148 238 258 314 318 311 294 266 319 331 340 332 320 320 316 311 300 300
115 120 121 125 121 118 122 136 139 133 129 123 123 131 136 141 145 145 144 138 136 132 132 140 137 132 133 135 154 124 107 98 94 74 75 103 161 189 178 153 129 142 181 210 198 192 172 159 116 115 116 104 98 99 103 100 104 98 99 97 106 126 146 140 143 141 162 260 268 269 318 309 273 299 14 25 354 338 321 319 316 310 304 301 300
92 113 116 118 124 131 135 140 138 129 125 126 132 137 139 143 149 156 140 137 140 139 143 144 141 145 142 146 142 134 124 138 164 168 176 182 189 186 172 141 156 208 229 216 200 162 146 127 128 113 112 117 119 111 106 98 92 99 85 71 96 102 80 80 53 254 231 245 261 270 231 245 347 22 29 23 347 323 313 307 306 299 297 303 302
117 120 122 117 117 126 135 135 136 127 128 134 146 143 142 153 156 147 143 143 145 151 157 157 157 153 151 154 150 155 158 158 176 175 172 176 180 191 179 180 207 221 228 175 129 125 129 135 131 129 138 142 135 135 132 130 137 136 103 113 130 152 180 148 81 349 287 219 185 178 30 31 54 22 12 345 315 305 304 302 292 301 307 304 299
93 99 97 106 116 121 125 128 133 138 141 145 139 138 141 145 141 139 141 140 145 156 165 166 155 148 164 173 170 170 161 168 174 169 173 176 184 191 192 204 205 219 178 139 134 132 137 144 150 155 159 158 154 153 155 149 171 170 133 159 141 117 70 337 333 302 295 286 172 72 66 66 25 25 344 313 305 311 300 300 318 318 311 302 307
64 61 96 104 109 117 127 145 148 143 116 102 103 123 127 127 134 138 141 141 151 160 163 159 144 157 170 170 176 187 175 167 169 163 176 181 189 193 198 196 194 157 142 141 138 136 149 154 163 159 152 157 162 177 173 163 143 94 122 122 110 87 56 355 278 257 355 41 53 61 48 20 13 8 332 323 326 316 323 326 318 309 308 310 312
105 101 103 89 61 170 153 153 121 110 111 103 95 84 94 123 136 139 137 142 143 140 133 133 138 152 166 178 182 190 196 179 172 172 176 188 193 200 195 168 168 145 140 147 154 145 130 106 90 72 71 66 76 89 92 103 108 112 106 94 80 78 71 46 35 61 80 80 62 43 32 22 14 2 347 335 324 330 323 318 311 315 315 313 310
93 111 115 112 157 246 148 134 126 138 147 152 154 149 161 161 140 140 136 127 123 125 124 131 136 140 143 158 175 194 235 230 187 181 185 185 188 191 170 165 156 137 125 112 110 101 98 95 92 93 95 100 95 90 88 87 82 81 74 69 56 39 38 32 55 83 85 78 60 45 31 24 13 1 348 336 331 323 313 315 318 317 316 308 313
148 119 120 129 157 142 142 122 125 141 148 143 144 140 132 134 138 134 123 124 126 122 127 133 133 133 142 155 177 196 220 219 211 168 157 158 159 156 152 149 154 146 112 106 108 103 98 97 98 94 86 85 94 99 103 102 100 94 89 84 70 72 82 83 84 75 74 70 59 45 33 27 6 347 333 321 318 307 312 315 312 315 315 315 326
120 97 142 164 149 140 135 123 132 123 129 131 127 117 114 116 128 128 125 131 132 132 136 137 141 149 158 172 185 197 206 205 204 182 150 148 151 164 160 155 143 123 127 125 118 114 112 109 107 111 118 127 127 116 105 104 106 106 98 81 99 113 111 98 91 78 72 77 69 62 34 10 342 320 312 310 309 311 312 309 311 306 301 316 319
108 99 77 351 340 46 94 94 111 123 121 112 113 115 112 119 106 110 121 132 135 137 137 143 150 162 168 178 182 195 198 197 179 162 155 169 179 180 148 144 130 126 131 132 132 134 137 137 136 132 131 129 131 136 135 110 75 61 64 105 120 103 87 84 83 87 87 77 80 68 36 321 308 302 306 314 314 314 313 307 301 303 319 320 315
99 120 130 131 157 115 76 97 90 109 107 114 109 106 114 118 111 113 106 126 141 141 144 150 159 170 171 182 180 178 169 163 155 160 170 185 204 186 140 151 144 147 149 152 151 151 150 145 141 136 136 140 136 126 112 99 95 95 86 79 98 108 105 99 88 80 68 63 58 42 306 295 293 299 303 306 306 306 308 304 299 321 321 320 314
134 131 150 131 135 123 156 134 101 92 110 104 90 103 104 97 108 116 119 111 125 145 154 157 162 164 164 166 151 154 153 154 165 176 179 180 196 184 158 162 158 155 145 149 158 158 152 151 151 147 147 145 139 131 133 126 118 123 121 118 115 111 110 111 109 96 82 63 53 32 22 358 334 312 309 305 303 303 300 290 309 321 316 313 309
66 111 121 128 146 153 115 88 97 91 81 94 102 100 103 102 101 123 139 144 148 146 158 159 160 164 165 169 161 173 173 178 182 183 174 178 162 133 146 151 151 156 160 158 165 166 161 160 155 148 143 140 139 139 142 133 130 139 142 144 141 125 119 112 105 95 86 77 61 5 324 300 294 292 291 292 298 299 299 303 312 310 308 307 303
46 64 72 68 66 69 88 115 111 101 87 89 98 134 146 164 168 167 158 163 167 156 167 163 158 170 172 171 171 168 179 183 182 180 179 174 153 138 144 155 169 175 175 168 169 167 162 157 153 150 148 150 147 148 146 136 138 148 155 154 151 141 137 126 116 113 110 84 36 353 329 307 303 303 301 300 299 296 298 304 303 303 304 302 304